Bandar Toto Resmi Online Indonesia

Jackpot

Texas Poker Multi Jackpot System

Kini Telah hadir Jackpot SUPER ROYAL FLUSH

Kini Telah hadir Jackpot 2000 (khusus table VIP keatas).

Ikutilah global jackpot yang tersedia di system kami, dengan system jackpot terbaru dan pertama di indonesia, anda dapat membeli jackpot dengan harga 100 rupiah saja dan menangkan hadiahnya hingga puluhan juta rupiah.

Jackpot bukanlah suatu keharusan untuk dibeli, namun kami memberikan suatu fitur tambahan untuk member tercinta dari www.pokersakti.com.

Terdapat tiga pilihan harga jackpot yang bisa anda beli yaitu :100,500,1000 dan 2000(khusus table VIP Keatas) rupiah.

Hadiah dari Multi jackpot system www.pokersakti.com

  1. full house x 10 harga jackpot yang anda beli.
      (contoh:anda membeli 1000 maka:1000 X10 = 10.000)
  2. four of kind x 250 harga jackpot yang anda beli
      (contoh:anda membeli 1000 maka:1000 X250 = 250.000)
  3. Straight flush x 1200
      (contoh:anda membeli 1000 maka:1000 X1200 = 1.200.000)
  4. Royal flush x 10000 harga jackpot yang anda beli
      (contoh:anda membeli 1000 maka:1000 X10000 = 10.000.000)
  5. SUPER ROYAL FLUSH x 30000 harga jackpot yang anda beli
      (contoh:anda membeli 1000 maka:1000 X30000 = 30.000.000)

Kondisi kartu

  1. full house adalah kondisi kartu dimana kartu anda dan kartu tengah dengan total 7 kartu bisa mendapatkan nilai 5 kartu dengan kombinasi 1 tris(three of kind) dan 1 pair, contoh 3 kartu 10 dan 2 kartu 5
  2. Four of kind adalah kondisi kartu dimana kartu anda dan kartu tengah dengan total 7 kartu bisa mendapatkan nilai 5 kartu dengan kombinasi 4 kartu yang sama jumlah dan 1 kartu apapun juga contoh anda mendapatkan 4 buah kartu angka 3 dan 1 kartu apapun.
  3. Staright flush adalah kondisi kartu dimana kartu anda dan kartu tengah dengan total 7 kartu bisa mendapatkan nilai 5 kartu dengan kombinasi seri / staright dengan kembang yang sama contoh : urutan kartu dari angka 5, 6, 7, 8 , 9 10 dengan kembang yg sama misalnya as hati
  4. Royal flush adalah kondisi kartu dimana kartu anda dan kartu tengah dengan total 7 kartu bisa mendapatkan nilai 5 kartu dengan kombinasi seri / staright dengan kembang yang sama tetapi kartu tersebut haruslah dimulai dari 10. contoh 10, Queen, Jack, King dan aces dengan kembang yang sama
  5. Super Royal flush adalah kondisi kartu dimana Kedua kartu anda digabung dengan 3 kartu pertama meja haruslah royal flush. contoh kartu anda 10,Queen kembang sama dan 3 kartu pertama meja adalah Jack, King dan aces dengan kembang yang sama

Demikian adalah penjelasan dari Multi Jackpot www.pokersakti.com terima kasih dan selamat bermain salam hoki dari kami

Texas Poker Jackpot Winner

TOP SUPER ROYAL FLUSH
No.TanggalNamaPriceWin
121/01 05:03OKI_12Super Royal flush6,000,000
221/01 00:56PUCKEYSuper Royal flush6,000,000
320/01 23:37BUNGNGA999Super Royal flush6,000,000
420/01 18:09COROET87Super Royal flush3,000,000
520/01 17:49CUPANG011Super Royal flush15,000,000
TOP ROYAL FLUSH
No.TanggalNamaPriceWin
121/01 04:14KUNDRU186Royal flush5,000,000
221/01 03:44KUMAN77Royal flush500,000
321/01 03:42DLPNJUTARoyal flush5,000,000
421/01 03:37E8F1F6C2Royal flush2,000,000
521/01 03:37FGLD9GYX1DRoyal flush2,000,000
TOP STRAIGHT FLUSH
No.TanggalNamaPriceWin
121/01 05:41RO_BIStraight Flush240,000
221/01 05:39JIKKLK123Straight Flush1,200,000
321/01 05:33ABIMANYU41Straight Flush240,000
421/01 05:31LEGENDZONAStraight Flush120,000
521/01 05:30ZCOWJSJAFXStraight Flush240,000
LATEST JACKPOT
No.TanggalNamaPriceWin
121/01 05:42ITIL135Full House1,000
221/01 05:42LINDIFull House5,000
321/01 05:42SUSANA03Full House2,000
421/01 05:42ENDED99Full House5,000
521/01 05:42TTMM33Full House10,000
621/01 05:42GHOLUN211Full House2,000
721/01 05:41JACKO500Full House2,000
821/01 05:41C1ANJURFull House5,000
921/01 05:41RAMPAS_777Full House10,000
1021/01 05:41TOOO___PFull House5,000
1121/01 05:41GODHAND10Full House5,000
1221/01 05:41TANAMEHFull House10,000
1321/01 05:41MANJUJUKFull House1,000
1421/01 05:41SURIANTO13Full House5,000
1521/01 05:41MRR4574Full House1,000
1621/01 05:41ALVES15Full House2,000
1721/01 05:41SEEP211Full House2,000
1821/01 05:41RO_BIStraight Flush240,000
1921/01 05:41G3D4N9_008Full House5,000
2021/01 05:41NGATIJPFull House5,000
2121/01 05:41MHASTER_POFour Of A Kind50,000
2221/01 05:41HOKISLALU9Full House5,000
2321/01 05:41YASIN20Full House5,000
2421/01 05:41EFRY8686Full House2,000
2521/01 05:41JOJON1992Four Of A Kind50,000
2621/01 05:41S4Y4P1Full House10,000
2721/01 05:41KAIRA111Full House2,000
2821/01 05:41ENDI29Full House2,000
2921/01 05:41MEMIMEFull House1,000
3021/01 05:41IDAYRUSFull House2,000
3121/01 05:41PERAWAT78Full House2,000
3221/01 05:41S7QUZX9J1IFull House5,000
3321/01 05:41CIKALL21Full House5,000
3421/01 05:41BUMBLEBE99Full House1,000
3521/01 05:41BRAI22Full House2,000
3621/01 05:41ROBOKOBFull House2,000
3721/01 05:41TUTUH_DAFull House5,000
3821/01 05:41WIRIDDFour Of A Kind125,000
3921/01 05:41YANG_YIN88Full House5,000
4021/01 05:41RAINZFull House20,000
4121/01 05:41B4B0YFull House1,000
4221/01 05:41BLOKD3Full House2,000
4321/01 05:41SOMSE88Full House2,000
4421/01 05:41NUNUK04Full House5,000
4521/01 05:41LOMAK69Full House1,000
4621/01 05:41ADITWFull House2,000
4721/01 05:41RUTAMNUWUSFull House10,000
4821/01 05:41KAWANLAMA1Full House2,000
4921/01 05:41ZZKKUUFull House2,000
5021/01 05:41RAJA1KAMSAFull House10,000

Domino Multi Jackpot System

Ikutilah global jackpot yang tersedia di system kami, dengan system jackpot terbaru dan pertama di indonesia, anda dapat membeli jackpot dengan harga 100 rupiah saja dan menangkan hadiahnya hingga puluhan juta rupiah.

Jackpot bukanlah suatu keharusan untuk dibeli, namun kami memberikan suatu fitur tambahan untuk member tercinta dari www.pokersakti.com.

Terdapat tiga pilihan harga jackpot yang bisa anda beli yaitu :100,500 dan 1000 rupiah.

Hadiah dari Multi jackpot system www.pokersakti.com

  1. Murni Kecil x 50 harga jackpot yang anda beli.
      (contoh:anda membeli 1000 maka:1000 X 50 = 50.000)
  2. Murni Besar x 50 harga jackpot yang anda beli
      (contoh:anda membeli 1000 maka:1000 X 50 = 50.000)
  3. BALAK x 100 harga jackpot yang anda beli
      (contoh:anda membeli 1000 maka:1000 X 100 = 100.000)
  4. ENAM DEWA x 6666 harga jackpot yang anda beli
      (contoh:anda membeli 1000 maka:1000 X 6666 = 6.666.000)

Demikian adalah penjelasan dari Multi Jackpot www.pokersakti.com terima kasih dan selamat bermain salam hoki dari kami

Domino Jackpot Winner

TOP ENAM DEWA
No.TanggalNamaPriceWin
120/01 23:55CECER67murni enam3,333,000
220/01 22:48HARI210485murni enam3,333,000
320/01 16:39ACIL66murni enam6,666,000
420/01 14:08SANGENYAmurni enam3,333,000
520/01 12:17TONI028murni enam3,333,000
TOP BALAK
No.TanggalNamaPriceWin
121/01 05:36AADDACUD61balak10,000
221/01 05:35CRFEZL9JDJbalak10,000
321/01 05:31CIRO23balak100,000
421/01 05:29INKHE08balak100,000
521/01 05:13SPORTLIAbalak100,000
LATEST JACKPOT
No.TanggalNamaPriceWin
121/01 05:42FAJAR0murni kecil50,000
221/01 05:41MADA77murni kecil50,000
321/01 05:40MOA76murni kecil50,000
421/01 05:39IIK_NICKmurni kecil5,000
521/01 05:39CIRO23murni kecil50,000
621/01 05:38LEOSHTTmurni kecil5,000
721/01 05:37ANDYMESSImurni besar50,000
821/01 05:36AADDACUD61balak10,000
921/01 05:35CRFEZL9JDJbalak10,000
1021/01 05:34ALIKEPURmurni besar50,000
1121/01 05:32BUSTED15murni kecil50,000
1221/01 05:32RULER99murni kecil5,000
1321/01 05:31CIRO23balak100,000
1421/01 05:30AADDAIAA2murni besar5,000
1521/01 05:29INKHE08balak100,000
1621/01 05:28TEMPEKTUO1murni besar50,000
1721/01 05:28TOGE9393murni kecil5,000
1821/01 05:27MENSENN18murni besar5,000
1921/01 05:27ARIS49murni besar25,000
2021/01 05:26C701877Emurni kecil25,000
2121/01 05:25JNG99murni kecil50,000
2221/01 05:25AULI488murni besar5,000
2321/01 05:23COMET86murni besar50,000
2421/01 05:22BIKUBIKUmurni besar50,000
2521/01 05:19KBJK03KSLTmurni besar5,000
2621/01 05:19YADAH88murni besar25,000
2721/01 05:17MAKANASmurni besar50,000
2821/01 05:17ASTA555murni besar50,000
2921/01 05:15BENGHAR93murni kecil25,000
3021/01 05:15JABLUNmurni kecil5,000
3121/01 05:15EZITmurni besar50,000
3221/01 05:15IN3NGB4L3murni besar5,000
3321/01 05:13PANU5lucky9950,000
3421/01 05:13SPORTLIAbalak100,000
3521/01 05:13EOSRURI07murni kecil25,000
3621/01 05:12CEKI1234balak100,000
3721/01 05:11JEMBOT9999murni kecil5,000
3821/01 05:11HITJAMANOWbalak100,000
3921/01 05:10VANTAKURZmurni besar25,000
4021/01 05:10EDO114balak100,000
4121/01 05:09SPORTLIAbalak100,000
4221/01 05:07SPORTLIAmurni besar50,000
4321/01 05:07GANASSS02murni kecil50,000
4421/01 05:07SY78890murni kecil5,000
4521/01 05:06MANCAAIIlucky9925,000
4621/01 05:05K3QNTADQ53murni kecil50,000
4721/01 05:05DAVEN99balak10,000
4821/01 05:05KUPU2Mmurni besar25,000
4921/01 05:04MENSENN18murni besar5,000
5021/01 05:00GARANmurni kecil25,000

Ceme Multi Jackpot System

Jackpot dilihat dari gabungan kartu pemain dengan kartu bandar. Bandar harus membeli jackpot sebanyak jumlah player yang sedang duduk. Sebagai contoh bila terdapat 3 pemain duduk bermain, dan bandar memutuskan untuk membeli jackpot Rp 1.000, maka pada periode tersebut bandar akan membeli jackpot sebanyak 3xRp1.000 = Rp3.000.

Jackpot bukanlah suatu keharusan untuk dibeli, namun kami memberikan suatu fitur tambahan untuk member tercinta dari www.pokersakti.com.

Terdapat tiga pilihan harga jackpot yang bisa anda beli yaitu :100,500 dan 1000 rupiah.

Hadiah dari Multi jackpot system www.pokersakti.com

  1. Murni Kecil x 50 harga jackpot yang anda beli.
      (contoh:anda membeli 1000 maka:1000 X 50 = 50.000)
  2. Murni Besar x 50 harga jackpot yang anda beli
      (contoh:anda membeli 1000 maka:1000 X 50 = 50.000)
  3. BALAK x 200 harga jackpot yang anda beli
      (contoh:anda membeli 1000 maka:1000 X 200 = 200.000)
  4. ENAM DEWA x 6666 harga jackpot yang anda beli
      (contoh:anda membeli 1000 maka:1000 X 6666 = 6.666.000)

Demikian adalah penjelasan dari Multi Jackpot www.pokersakti.com terima kasih dan selamat bermain salam hoki dari kami

Ceme Jackpot Winner

TOP ENAM DEWA
No.TanggalNamaPriceWin
121/01 04:59UGIX1988murni enam3,333,000
221/01 04:59GAKNGOROSmurni enam6,666,000
321/01 04:52NIEZmurni enam666,600
421/01 04:46PANIROYmurni enam6,666,000
521/01 04:11ARP15GBmurni enam666,600
TOP BALAK
No.TanggalNamaPriceWin
121/01 05:41YONGKRUTTbalak200,000
221/01 05:41SIMEN297balak200,000
321/01 05:40BXNMBKQ50Ubalak200,000
421/01 05:35M3IN9G6VTAbalak100,000
521/01 05:34BA5417ENbalak100,000
LATEST JACKPOT
No.TanggalNamaPriceWin
121/01 05:42KUPUN78murni besar50,000
221/01 05:42AKB12murni besar25,000
321/01 05:42IRFAN233murni kecil50,000
421/01 05:42IRFAN233murni kecil50,000
521/01 05:42M48Umurni besar50,000
621/01 05:42GONJEN1murni kecil25,000
721/01 05:41QNI9F66H88murni kecil50,000
821/01 05:41SUALLOWmurni kecil50,000
921/01 05:41BOBOOOY06murni kecil50,000
1021/01 05:41LINTAH66murni kecil50,000
1121/01 05:41JASSELINEmurni kecil5,000
1221/01 05:41YONGKRUTTbalak200,000
1321/01 05:41ET2F3SK2M2murni besar25,000
1421/01 05:41RAHMADZLDmurni kecil25,000
1521/01 05:41TAMABROmurni kecil50,000
1621/01 05:41RAHMADZLDmurni kecil25,000
1721/01 05:41DEVALO_22murni besar50,000
1821/01 05:41P3TERmurni besar50,000
1921/01 05:41SIMEN297balak200,000
2021/01 05:41SUMBERANmurni kecil5,000
2121/01 05:40BXNMBKQ50Ubalak200,000
2221/01 05:39RAFEL12murni kecil25,000
2321/01 05:38UGIX1988murni besar25,000
2421/01 05:38TEGOEH99murni besar50,000
2521/01 05:37FURDIATmurni besar50,000
2621/01 05:37GROGOTCLUBmurni kecil50,000
2721/01 05:37BUMZAMEERmurni kecil50,000
2821/01 05:37MIKHAYLA85murni kecil5,000
2921/01 05:36MVJ18BZM6Tmurni kecil25,000
3021/01 05:36BA5417ENmurni kecil25,000
3121/01 05:36ET2F3SK2M2murni kecil25,000
3221/01 05:35SUPINI2546murni besar25,000
3321/01 05:35E1SPKBN6V3murni besar50,000
3421/01 05:35QNI9F66H88murni kecil50,000
3521/01 05:35M3IN9G6VTAbalak100,000
3621/01 05:35MEY117murni besar50,000
3721/01 05:34CARERA27murni kecil5,000
3821/01 05:34WITHDRAW37murni kecil50,000
3921/01 05:34ET2F3SK2M2murni besar25,000
4021/01 05:34CALL89REImurni besar50,000
4121/01 05:34BA5417ENbalak100,000
4221/01 05:34BA5417ENmurni kecil25,000
4321/01 05:34BERNATMURmurni besar50,000
4421/01 05:33VANDAKU99murni kecil50,000
4521/01 05:33MARITUN12murni kecil25,000
4621/01 05:33TABIN88murni kecil25,000
4721/01 05:32BUTOBUTOIJmurni kecil5,000
4821/01 05:32B9ENTEN9murni kecil5,000
4921/01 05:32GUNNUGRAHAmurni kecil25,000
5021/01 05:32ASSKINGG21murni besar50,000